| time (UTC) | temp F | wind direction | speed MPH | gust MPH | rain 1hr in | rain 24hr in | rain mn in | humidity % | barometer mb |
| 20260902163544 | 72 | 197 | 1.0 | 4.0 | 0.00 | 0.00 | 0.00 | 86 | 1017.4 |
| 20260902162520 | 72 | 180 | 1.0 | 4.0 | 0.00 | 0.00 | 0.00 | 86 | 1017.5 |
| 20260902161520 | 73 | 158 | 1.0 | 4.0 | 0.00 | 0.00 | 0.00 | 86 | 1017.5 |
| 20260902160520 | 73 | 189 | 2.0 | 4.0 | 0.00 | 0.00 | 0.00 | 85 | 1017.6 |
| 20260902155520 | 73 | 195 | 2.0 | 4.0 | 0.00 | 0.00 | 0.00 | 84 | 1017.6 |
| 20260902154520 | 74 | 180 | 2.0 | 4.0 | 0.00 | 0.00 | 0.00 | 84 | 1017.7 |
| 20260902153520 | 74 | 173 | 4.0 | 7.0 | 0.00 | 0.00 | 0.00 | 83 | 1017.7 |
| 20260902152520 | 74 | 194 | 3.0 | 4.0 | 0.00 | 0.00 | 0.00 | 82 | 1017.7 |
| 20260902151520 | 76 | 190 | 2.0 | 4.0 | 0.00 | 0.00 | 0.00 | 80 | 1017.7 |
| 20260902150600 | 77 | 183 | 2.0 | 4.0 | 0.00 | 0.00 | 0.00 | 79 | 1017.7 |
| 20260902145520 | 76 | 193 | 2.0 | 9.0 | 0.00 | 0.00 | 0.00 | 81 | 1017.8 |
| 20260902144520 | 76 | 141 | 2.0 | 7.0 | 0.00 | 0.00 | 0.00 | 81 | 1017.8 |
| 20260902143520 | 76 | 189 | 5.0 | 9.0 | 0.00 | 0.00 | 0.00 | 80 | 1017.7 |
| 20260902142520 | 76 | 176 | 4.0 | 7.0 | 0.00 | 0.00 | 0.00 | 80 | 1017.8 |
| 20260902141520 | 77 | 177 | 4.0 | 9.0 | 0.00 | 0.00 | 0.00 | 80 | 1017.8 |
| 20260902140532 | 76 | 122 | 4.0 | 7.0 | 0.00 | 0.00 | 0.00 | 82 | 1018.0 |
| 20260902135520 | 77 | 181 | 4.0 | 9.0 | 0.00 | 0.00 | 0.00 | 80 | 1018.0 |
| 20260902134520 | 76 | 163 | 4.0 | 7.0 | 0.00 | 0.00 | 0.00 | 82 | 1018.1 |
| 20260902133532 | 76 | 163 | 3.0 | 7.0 | 0.00 | 0.00 | 0.00 | 83 | 1018.2 |
| 20260902132520 | 76 | 178 | 4.0 | 7.0 | 0.00 | 0.00 | 0.00 | 82 | 1018.3 |
| 20260902131520 | 76 | 121 | 3.0 | 4.0 | 0.00 | 0.00 | 0.00 | 84 | 1018.3 |
| 20260902130520 | 77 | 172 | 5.0 | 9.0 | 0.00 | 0.00 | 0.00 | 83 | 1018.3 |
| 20260902125520 | 77 | 186 | 5.0 | 9.0 | 0.00 | 0.00 | 0.00 | 82 | 1018.3 |
| 20260902124520 | 77 | 156 | 4.0 | 11.0 | 0.00 | 0.00 | 0.00 | 83 | 1018.4 |
| 20260902123532 | 77 | 167 | 4.0 | 9.0 | 0.00 | 0.00 | 0.00 | 83 | 1018.4 |
| 20260902122544 | 76 | 161 | 5.0 | 11.0 | 0.00 | 0.00 | 0.00 | 83 | 1018.5 |
| 20260902121520 | 77 | 171 | 4.0 | 9.0 | 0.00 | 0.00 | 0.00 | 82 | 1018.5 |
| 20260902120520 | 77 | 134 | 4.0 | 9.0 | 0.00 | 0.00 | 0.00 | 82 | 1018.7 |
| 20260902115532 | 77 | 175 | 4.0 | 11.0 | 0.00 | 0.00 | 0.00 | 83 | 1018.6 |
| 20260902114520 | 76 | 128 | 4.0 | 9.0 | 0.00 | 0.00 | 0.00 | 83 | 1018.7 |
| 20260902113520 | 77 | 161 | 4.0 | 7.0 | 0.00 | 0.00 | 0.00 | 83 | 1018.8 |
| 20260902112520 | 76 | 170 | 4.0 | 9.0 | 0.00 | 0.00 | 0.00 | 84 | 1018.9 |
| 20260902111520 | 76 | 175 | 4.0 | 9.0 | 0.00 | 0.00 | 0.00 | 83 | 1018.9 |
| 20260902110520 | 77 | 149 | 4.0 | 9.0 | 0.00 | 0.00 | 0.00 | 80 | 1019.0 |
| 20260902105520 | 76 | 135 | 5.0 | 9.0 | 0.00 | 0.00 | 0.00 | 83 | 1018.9 |
| 20260902104544 | 77 | 148 | 5.0 | 9.0 | 0.00 | 0.00 | 0.00 | 82 | 1019.0 |
| 20260902103540 | 76 | 124 | 4.0 | 9.0 | 0.00 | 0.00 | 0.00 | 82 | 1019.0 |
| 20260902102520 | 76 | 188 | 5.0 | 9.0 | 0.00 | 0.00 | 0.00 | 82 | 1019.1 |
| 20260902101540 | 77 | 179 | 5.0 | 9.0 | 0.00 | 0.00 | 0.00 | 81 | 1019.2 |
| 20260902100520 | 77 | 169 | 4.0 | 7.0 | 0.00 | 0.00 | 0.00 | 79 | 1019.3 |
| 20260902095520 | 77 | 181 | 3.0 | 7.0 | 0.00 | 0.00 | 0.00 | 80 | 1019.4 |
| 20260902094520 | 77 | 161 | 3.0 | 7.0 | 0.00 | 0.00 | 0.00 | 79 | 1019.4 |
| 20260902093520 | 76 | 144 | 4.0 | 7.0 | 0.00 | 0.00 | 0.00 | 80 | 1019.4 |
| 20260902092520 | 77 | 173 | 4.0 | 7.0 | 0.00 | 0.00 | 0.00 | 78 | 1019.5 |
| 20260902091532 | 77 | 191 | 4.0 | 7.0 | 0.00 | 0.00 | 0.00 | 76 | 1019.5 |
| 20260902090540 | 78 | 188 | 3.0 | 7.0 | 0.00 | 0.00 | 0.00 | 76 | 1019.6 |
| 20260902085520 | 77 | 163 | 4.0 | 7.0 | 0.00 | 0.00 | 0.00 | 77 | 1019.6 |
| 20260902084540 | 78 | 161 | 3.0 | 7.0 | 0.00 | 0.00 | 0.00 | 76 | 1019.6 |
| 20260902083520 | 77 | 174 | 3.0 | 7.0 | 0.00 | 0.00 | 0.00 | 77 | 1019.6 |
| 20260902082532 | 77 | 190 | 3.0 | 4.0 | 0.00 | 0.00 | 0.00 | 79 | 1019.6 |
| 20260902081532 | 77 | 163 | 3.0 | 4.0 | 0.00 | 0.00 | 0.00 | 78 | 1019.6 |
| 20260902080604 | 77 | 160 | 2.0 | 4.0 | 0.00 | 0.00 | 0.00 | 75 | 1019.6 |
| 20260902075520 | 77 | 175 | 2.0 | 4.0 | 0.00 | 0.00 | 0.00 | 77 | 1019.6 |
| 20260902074520 | 76 | 117 | 1.0 | 4.0 | 0.00 | 0.00 | 0.00 | 77 | 1019.5 |
| 20260902073540 | 76 | 0.0 | 0.0 | 0.00 | 0.00 | 0.00 | 75 | 1019.5 | |
| 20260902072520 | 76 | 134 | 1.0 | 4.0 | 0.00 | 0.00 | 0.00 | 72 | 1019.3 |
| 20260902071520 | 77 | 0.0 | 0.0 | 0.00 | 0.00 | 0.00 | 74 | 1019.3 | |
| 20260902070520 | 76 | 0.0 | 0.0 | 0.00 | 0.00 | 0.00 | 74 | 1019.2 | |
| 20260902065540 | 76 | 128 | 0.0 | 2.0 | 0.00 | 0.00 | 0.00 | 71 | 1019.2 |
| 20260902064520 | 78 | 0.0 | 0.0 | 0.00 | 0.00 | 0.00 | 74 | 1019.0 | |
| 20260902063520 | 81 | 0.0 | 0.0 | 0.00 | 0.00 | 0.00 | 56 | 1019.0 | |
| 20260902062520 | 81 | 0.0 | 0.0 | 0.00 | 0.00 | 0.00 | 52 | 1018.9 | |
| 20260902061544 | 79 | 0.0 | 0.0 | 0.00 | 0.00 | 0.00 | 54 | 1018.8 | |
| 20260902060552 | 77 | 0.0 | 0.0 | 0.00 | 0.00 | 0.00 | 63 | 1018.7 | |
| 20260902055520 | 75 | 23 | 1.0 | 2.0 | 0.00 | 0.00 | 0.00 | 65 | 1018.8 |
| 20260902054520 | 74 | 23 | 2.0 | 4.0 | 0.00 | 0.00 | 0.00 | 81 | 1018.9 |
| 20260902053520 | 74 | 358 | 2.0 | 4.0 | 0.00 | 0.00 | 0.00 | 84 | 1018.9 |
| 20260902052520 | 76 | 315 | 1.0 | 2.0 | 0.00 | 0.00 | 0.00 | 80 | 1018.8 |
| 20260902051520 | 77 | 0.0 | 0.0 | 0.00 | 0.00 | 0.00 | 80 | 1018.8 | |
| 20260902050520 | 78 | 0.0 | 0.0 | 0.00 | 0.00 | 0.00 | 71 | 1018.7 | |
| 20260902045520 | 73 | 0.0 | 0.0 | 0.00 | 0.00 | 0.00 | 77 | 1018.5 | |
| 20260902044520 | 71 | 0.0 | 0.0 | 0.00 | 0.00 | 0.00 | 86 | 1018.4 | |
| 20260902043520 | 72 | 0.0 | 0.0 | 0.00 | 0.00 | 0.00 | 99 | 1018.3 | |
| 20260902042520 | 68 | 0.0 | 0.0 | 0.00 | 0.00 | 0.00 | 99 | 1018.3 | |
| 20260902041520 | 66 | 0.0 | 0.0 | 0.00 | 0.00 | 0.00 | 99 | 1018.3 | |
| 20260902040520 | 64 | 0.0 | 0.0 | 0.00 | 0.00 | 0.00 | 99 | 1018.3 | |
| 20260902035532 | 62 | 0.0 | 0.0 | 0.00 | 0.00 | 0.00 | 99 | 1018.2 | |
| 20260902034540 | 62 | 0.0 | 0.0 | 0.00 | 0.00 | 0.00 | 99 | 1018.2 | |
| 20260902033520 | 62 | 0.0 | 0.0 | 0.00 | 0.00 | 0.00 | 99 | 1018.1 | |
| 20260902032520 | 62 | 0.0 | 0.0 | 0.00 | 0.00 | 0.00 | 99 | 1018.0 | |
| 20260902031544 | 63 | 0.0 | 0.0 | 0.00 | 0.00 | 0.00 | 99 | 1018.0 | |
| 20260902030520 | 63 | 0.0 | 0.0 | 0.00 | 0.00 | 0.00 | 99 | 1017.9 | |
| 20260902025520 | 63 | 0.0 | 0.0 | 0.00 | 0.00 | 0.00 | 99 | 1017.9 | |
| 20260902024520 | 64 | 0.0 | 0.0 | 0.00 | 0.00 | 0.00 | 99 | 1017.9 | |
| 20260902023540 | 65 | 0.0 | 0.0 | 0.00 | 0.00 | 0.00 | 99 | 1017.9 | |
| 20260902022520 | 66 | 0.0 | 0.0 | 0.00 | 0.00 | 0.00 | 99 | 1017.8 | |
| 20260902021520 | 66 | 0.0 | 0.0 | 0.00 | 0.00 | 0.00 | 99 | 1017.8 | |
| 20260902020520 | 67 | 0.0 | 0.0 | 0.00 | 0.00 | 0.00 | 99 | 1017.8 | |
| 20260902015520 | 67 | 270 | 0.0 | 2.0 | 0.00 | 0.00 | 0.00 | 99 | 1017.9 |
| 20260902014520 | 66 | 0.0 | 0.0 | 0.00 | 0.00 | 0.00 | 99 | 1018.0 | |
| 20260902013520 | 65 | 0.0 | 0.0 | 0.00 | 0.00 | 0.00 | 99 | 1017.9 | |
| 20260902012520 | 65 | 0.0 | 0.0 | 0.00 | 0.00 | 0.00 | 99 | 1017.9 | |
| 20260902011520 | 65 | 0.0 | 0.0 | 0.00 | 0.00 | 0.00 | 99 | 1018.0 | |
| 20260902010520 | 65 | 0.0 | 0.0 | 0.00 | 0.00 | 0.00 | 99 | 1017.9 | |
| 20260902005520 | 65 | 0.0 | 0.0 | 0.00 | 0.00 | 0.00 | 98 | 1018.0 | |
| 20260902004520 | 66 | 0.0 | 0.0 | 0.00 | 0.00 | 0.00 | 98 | 1017.9 | |
| 20260902003520 | 66 | 0.0 | 0.0 | 0.00 | 0.00 | 0.00 | 98 | 1017.8 | |
| 20260902002520 | 67 | 0.0 | 0.0 | 0.00 | 0.00 | 0.00 | 98 | 1017.7 | |
| 20260902001520 | 67 | 0.0 | 0.0 | 0.00 | 0.00 | 0.00 | 97 | 1017.7 | |
| 20260902000520 | 67 | 0.0 | 0.0 | 0.00 | 0.00 | 0.00 | 97 | 1017.7 | |
| 20260901235532 | 67 | 270 | 0.0 | 2.0 | 0.00 | 0.00 | 0.00 | 97 | 1017.7 |
| 20260901234532 | 68 | 270 | 0.0 | 1.0 | 0.00 | 0.00 | 0.00 | 97 | 1017.8 |
| 20260901233532 | 68 | 270 | 1.0 | 2.0 | 0.00 | 0.00 | 0.00 | 97 | 1017.8 |
| 20260901232520 | 68 | 0.0 | 0.0 | 0.00 | 0.00 | 0.00 | 97 | 1017.8 | |
| 20260901231532 | 67 | 0.0 | 0.0 | 0.00 | 0.00 | 0.00 | 96 | 1017.8 | |
| 20260901230540 | 68 | 0.0 | 0.0 | 0.00 | 0.00 | 0.00 | 96 | 1017.8 | |
| 20260901225520 | 68 | 0.0 | 0.0 | 0.00 | 0.00 | 0.00 | 96 | 1017.8 | |
| 20260901224520 | 68 | 248 | 0.0 | 2.0 | 0.00 | 0.00 | 0.00 | 96 | 1017.9 |
| 20260901223520 | 68 | 248 | 1.0 | 2.0 | 0.00 | 0.00 | 0.00 | 96 | 1017.9 |
| 20260901222520 | 68 | 248 | 1.0 | 4.0 | 0.00 | 0.00 | 0.00 | 95 | 1017.9 |
| 20260901221540 | 68 | 248 | 1.0 | 2.0 | 0.00 | 0.00 | 0.00 | 95 | 1017.9 |
| 20260901220544 | 69 | 248 | 1.0 | 2.0 | 0.00 | 0.00 | 0.00 | 95 | 1017.9 |
| 20260901215520 | 69 | 248 | 2.0 | 2.0 | 0.00 | 0.00 | 0.00 | 94 | 1018.0 |
| 20260901214520 | 69 | 248 | 1.0 | 4.0 | 0.00 | 0.00 | 0.00 | 94 | 1017.9 |
| 20260901213520 | 69 | 248 | 2.0 | 4.0 | 0.00 | 0.00 | 0.00 | 94 | 1017.8 |
| 20260901212532 | 69 | 248 | 1.0 | 2.0 | 0.00 | 0.00 | 0.00 | 94 | 1017.9 |
| 20260901211520 | 69 | 248 | 1.0 | 4.0 | 0.00 | 0.00 | 0.00 | 94 | 1017.8 |
| 20260901210520 | 69 | 248 | 2.0 | 4.0 | 0.00 | 0.00 | 0.00 | 94 | 1017.8 |
| 20260901205520 | 69 | 248 | 1.0 | 2.0 | 0.00 | 0.00 | 0.00 | 94 | 1017.8 |
| 20260901204520 | 69 | 248 | 1.0 | 2.0 | 0.00 | 0.00 | 0.00 | 94 | 1017.8 |
| 20260901203520 | 69 | 248 | 1.0 | 2.0 | 0.00 | 0.00 | 0.00 | 94 | 1017.8 |
| 20260901202532 | 70 | 248 | 1.0 | 2.0 | 0.00 | 0.00 | 0.00 | 94 | 1017.8 |
| 20260901201532 | 70 | 248 | 1.0 | 2.0 | 0.00 | 0.00 | 0.00 | 93 | 1017.8 |
| 20260901200532 | 69 | 230 | 1.0 | 4.0 | 0.00 | 0.00 | 0.00 | 92 | 1017.8 |
| 20260901195520 | 69 | 0.0 | 0.0 | 0.00 | 0.00 | 0.00 | 92 | 1017.8 | |
| 20260901194520 | 69 | 180 | 0.0 | 2.0 | 0.00 | 0.00 | 0.00 | 92 | 1017.9 |
| 20260901193600 | 70 | 234 | 1.0 | 2.0 | 0.00 | 0.00 | 0.00 | 92 | 1017.8 |
| 20260901192520 | 70 | 158 | 2.0 | 4.0 | 0.00 | 0.00 | 0.00 | 93 | 1017.9 |
| 20260901191532 | 70 | 158 | 0.0 | 2.0 | 0.00 | 0.00 | 0.00 | 93 | 1017.9 |
| 20260901190520 | 69 | 180 | 1.0 | 2.0 | 0.00 | 0.00 | 0.00 | 93 | 1017.8 |
| 20260901185520 | 69 | 0.0 | 0.0 | 0.00 | 0.00 | 0.00 | 92 | 1017.8 | |
| 20260901184520 | 69 | 0.0 | 0.0 | 0.00 | 0.00 | 0.00 | 92 | 1017.8 | |
| 20260901183520 | 70 | 180 | 0.0 | 2.0 | 0.00 | 0.00 | 0.00 | 92 | 1017.8 |
| 20260901182520 | 70 | 0.0 | 0.0 | 0.00 | 0.00 | 0.00 | 91 | 1017.8 | |
| 20260901181532 | 70 | 0.0 | 0.0 | 0.00 | 0.00 | 0.00 | 91 | 1017.7 | |
| 20260901180532 | 70 | 0.0 | 0.0 | 0.00 | 0.00 | 0.00 | 90 | 1017.6 | |
| 20260901175540 | 70 | 0.0 | 0.0 | 0.00 | 0.00 | 0.00 | 90 | 1017.5 | |
| 20260901174520 | 70 | 180 | 0.0 | 2.0 | 0.00 | 0.00 | 0.00 | 89 | 1017.4 |
| 20260901173604 | 70 | 180 | 1.0 | 2.0 | 0.00 | 0.00 | 0.00 | 88 | 1017.2 |
| 20260901172532 | 70 | 180 | 1.0 | 2.0 | 0.00 | 0.00 | 0.00 | 88 | 1017.1 |
| 20260901171540 | 70 | 203 | 1.0 | 2.0 | 0.00 | 0.00 | 0.00 | 89 | 1017.1 |
| 20260901170520 | 71 | 199 | 2.0 | 4.0 | 0.00 | 0.00 | 0.00 | 89 | 1016.9 |
| 20260901165520 | 71 | 135 | 2.0 | 4.0 | 0.00 | 0.00 | 0.00 | 90 | 1016.9 |
| 20260901164544 | 71 | 135 | 1.0 | 2.0 | 0.00 | 0.00 | 0.00 | 89 | 1016.8 |